Tracking 29892 objects as of 21-Nov-2024
HD Live streaming from Space Station
objects crossing your sky now

STARLINK-30043

Track STARLINK-30043 now!
10-day predictions
STARLINK-30043 is classified as:


NORAD ID: 57417
Int'l Code: 2023-102P
Perigee: 565.6 km
Apogee: 566.9 km
Inclination: 43.0 °
Period: 95.8 minutes
Semi major axis: 6937 km
RCS: Unknown
Launch date: July 20, 2023
Source: United States (US)
Launch site: AIR FORCE WESTERN TEST RANGE (AFWTR)
Your satellite tracking list
Your tracking list is empty




NASA's NSSDC Master Catalog

Two Line Element Set (TLE):
1 57417U 23102P   24325.98913305  .00000183  00000-0  28643-4 0  9995
2 57417  43.0029 302.4719 0000941 265.0763  94.9972 15.02535895 74984
Source of the keplerian elements: AFSPC